Simultaneous Nadir Overpasses (SNOs) Predictions

Prediction of SNOs between LANDSAT-8 and METOP-B Satellite Orbit:

Table of predicted SNOs for the next 14.0 days since TLE Epoch: 3/9/2024
Index Date (LANDSAT-8) Time (LANDSAT-8) Lat,Lon (LANDSAT-8) SZA (LANDSAT-8 ) Date (METOP-B) Time (METOP-B) Lat,Lon (METOP-B) SZA (METOP-B ) Distance(km) Time Diff (sec)
1 03/09/2024 04:56:39 -81.31, -31.65 92.42 03/09/2024 04:56:32 -81.30, -31.64 92.42 0.17 7
2 03/09/2024 05:46:05 81.32, 136.16 87.60 03/09/2024 05:47:11 81.32, 136.31 87.64 2.52 66
3 03/11/2024 23:41:27 81.28,-133.24 86.47 03/11/2024 23:40:16 81.29,-133.30 86.44 0.98 71
4 03/12/2024 00:30:53 -81.30, 34.66 93.52 03/12/2024 00:30:55 -81.31, 34.84 93.49 3.16 2
5 03/14/2024 19:15:40 81.31, -66.44 85.43 03/14/2024 19:14:39 81.30, -66.52 85.39 1.72 61
6 03/14/2024 20:05:07 -81.30, 101.11 94.60 03/14/2024 20:05:19 -81.31, 101.23 94.58 2.18 12
7 03/17/2024 14:49:54 81.29, -0.23 84.31 03/17/2024 14:49:03 81.30, -0.23 84.29 0.43 51
8 03/17/2024 15:39:20 -81.31, 167.71 95.67 03/17/2024 15:39:43 -81.31, 167.54 95.68 3.00 23
9 03/20/2024 10:24:05 81.31, 66.49 83.26 03/20/2024 10:23:25 81.30, 66.37 83.23 2.22 40



Historial Predications of SNOs between LANDSAT-8 and METOP-B
